• Join FlightAware (Why Join?)
  • Login
  • US Flag 
 
08:24PM EST


 

Airport Tracker/Info


-or-


 

Live Flight TrackerFlight Track Log ✈ BOE1 ✈ 17-Sep-2013 ✈ KPAE - KBFI

Flight Track Log - Related Links

Times and Time Zones

All times are in EDT time to prevent confusion due to time zone crossing. See the BOE1 flight status page for this flight to view local times or setup timezone preferences in your user account.

Time Position Orientation Groundspeed Altitude Reporting Facility
EDT Latitude Longitude Course Direction KTS MPH feet Rate Location/Type
02:02PM 47.9230 -122.2860 355° North 164 189 1,300  Level FlightAware
02:03PM 47.9330 -122.2910 341° North 162 186 1,800 2,160 Climbing FlightAware
02:03PM 47.9380 -122.2960 326° Northwest 165 190 2,100 1,680 Climbing FlightAware
02:03PM 47.9410 -122.3010 312° West 168 193 2,200 1,860 Climbing FlightAware
02:03PM 47.9450 -122.3110 301° West 170 196 2,600 1,980 Climbing FlightAware
02:03PM 47.9470 -122.3190 290° West 168 193 2,800 1,800 Climbing FlightAware
02:04PM 47.9520 -122.3410 289° West 171 197 3,400 1,860 Climbing FlightAware
02:04PM 47.9550 -122.3640 281° West 176 203 4,000 1,680 Climbing FlightAware
02:04PM 47.9600 -122.3910 285° West 181 208 4,600 1,260 Climbing FlightAware
02:05PM 47.9650 -122.4200 284° West 182 209 5,000 660 Climbing FlightAware
02:05PM 47.9680 -122.4340 288° West 185 213 5,000  Level FlightAware
02:05PM 47.9730 -122.4520 293° West 185 213 5,000 240 Level FlightAware
02:05PM 47.9780 -122.4600 313° West 183 211 5,100 960 Climbing FlightAware
02:05PM 47.9800 -122.4620 326° Northwest 184 212 5,200 960 Climbing FlightAware
02:05PM 47.9880 -122.4660 341° North 186 214 5,300 840 Climbing FlightAware
02:06PM 47.9920 -122.4670 351° North 188 216 5,400 1,140 Climbing FlightAware
02:06PM 48.0090 -122.4620 11° North 190 219 5,800 1,500 Climbing FlightAware
02:06PM 48.0260 -122.4520 21° North 194 223 6,400 1,380 Climbing FlightAware
02:06PM 48.0310 -122.4470 34° Northeast 195 224 6,500 1,200 Climbing FlightAware
02:06PM 48.0350 -122.4390 53° Northeast 195 224 6,700 1,980 Climbing FlightAware
02:07PM 48.0400 -122.4280 56° Northeast 196 226 7,000 1,680 Climbing FlightAware
02:07PM 48.0460 -122.4080 66° East 201 231 7,400 1,500 Climbing FlightAware
02:07PM 48.0560 -122.3790 63° Northeast 199 229 8,000 1,440 Climbing FlightAware
02:08PM 48.0640 -122.3520 66° East 201 231 8,500 1,500 Climbing FlightAware
02:08PM 48.0700 -122.3330 65° Northeast 204 235 8,900 1,320 Climbing FlightAware
02:08PM 48.0770 -122.3090 66° East 205 236 9,300 1,440 Climbing FlightAware
02:09PM 48.0860 -122.2750 68° East 209 241 10,000 1,500 Climbing FlightAware
02:09PM 48.0970 -122.2380 66° East 210 242 10,700 1,440 Climbing FlightAware
02:10PM 48.1110 -122.1880 67° East 214 246 11,600 1,260 Climbing FlightAware
02:10PM 48.1240 -122.1420 67° East 223 257 12,200 1,200 Climbing FlightAware
02:11PM 48.1300 -122.1170 70° East 224 258 12,600 1,380 Climbing FlightAware
02:11PM 48.1290 -122.0860 93° East 221 254 13,100 1,380 Climbing FlightAware
02:12PM 48.1240 -122.0220 97° East 222 255 14,100 1,440 Climbing FlightAware
02:12PM 48.1220 -121.9620 93° East 226 260 15,000 720 Climbing FlightAware
02:13PM 48.1190 -121.9130 95° East 230 265 15,000  Level FlightAware
02:13PM 48.1170 -121.8570 93° East 230 265 15,000 240 Level FlightAware
02:14PM 48.1140 -121.8030 95° East 225 259 15,300 780 Climbing FlightAware
02:14PM 48.1120 -121.7470 93° East 230 265 15,900 600 Climbing FlightAware
02:15PM 48.1090 -121.6940 95° East 233 268 16,000 60 Climbing FlightAware
02:16PM 48.1060 -121.6350 94° East 232 267 16,000  Level FlightAware
02:16PM 48.1030 -121.5690 94° East 236 272 16,000  Level FlightAware
02:17PM 48.1000 -121.5180 95° East 234 269 16,000  Level FlightAware
02:17PM 48.0970 -121.4590 94° East 235 270 16,000  Level FlightAware
02:18PM 48.0940 -121.4040 95° East 236 272 16,000  Level FlightAware
02:19PM 48.0920 -121.3490 93° East 238 274 16,000  Level FlightAware
02:19PM 48.0880 -121.2870 95° East 239 275 16,000 -180 Level FlightAware
02:20PM 48.0860 -121.2330 93° East 242 278 15,800 -480 Descending FlightAware
02:20PM 48.0820 -121.1730 96° East 239 275 15,500 -540 Descending FlightAware
02:21PM 48.0790 -121.1140 94° East 237 273 15,200 -300 Descending FlightAware
02:22PM 48.0760 -121.0560 94° East 234 269 15,200 -120 Level FlightAware
02:22PM 48.0710 -121.0080 99° East 234 269 15,100 -120 Descending FlightAware
02:23PM 48.0700 -120.9500 91° East 234 269 15,100  Level FlightAware
02:23PM 48.0670 -120.8900 94° East 221 254 15,100  Level FlightAware
02:24PM 48.0640 -120.8420 95° East 198 228 15,100 60 Level FlightAware
02:24PM 48.0610 -120.7920 95° East 197 227 15,200 60 Climbing FlightAware
02:25PM 48.0580 -120.7430 95° East 197 227 15,200  Level FlightAware
02:26PM 48.0550 -120.7000 96° East 198 228 15,200  Level FlightAware
02:26PM 48.0520 -120.6530 95° East 197 227 15,200  Level FlightAware
02:27PM 48.0480 -120.6010 97° East 198 228 15,200 -120 Level FlightAware
02:27PM 48.0460 -120.5580 94° East 199 229 15,100  Descending FlightAware
02:28PM 48.0420 -120.5080 97° East 199 229 15,200 60 Climbing FlightAware
02:29PM 48.0390 -120.4580 95° East 199 229 15,200 -120 Level FlightAware
02:29PM 48.0360 -120.4100 95° East 202 232 15,100 -120 Descending FlightAware
02:30PM 48.0340 -120.3650 94° East 200 230 15,100  Level FlightAware
02:30PM 48.0320 -120.3220 94° East 199 229 15,100  Level FlightAware
02:31PM 48.0300 -120.2780 94° East 199 229 15,100  Level FlightAware
02:31PM 48.0270 -120.2340 96° East 199 229 15,100  Level FlightAware
02:32PM 48.0250 -120.1950 94° East 199 229 15,100  Level FlightAware
02:33PM 48.0220 -120.1510 96° East 199 229 15,100  Level FlightAware
02:33PM 48.0200 -120.1070 94° East 199 229 15,100  Level FlightAware
02:34PM 48.0170 -120.0640 96° East 199 229 15,100 -120 Level FlightAware
02:35PM 48.0031 -119.9558 96° East 196 226 15,000 -120 Descending Seattle Center
02:36PM 48.0000 -119.8739 93° East 199 229 14,900  Descending Seattle Center
02:37PM 47.9972 -119.7917 93° East 199 229 15,000  Climbing Seattle Center
02:38PM 47.9956 -119.7081 92° East 199 229 15,000  Level Seattle Center
02:39PM 47.9950 -119.6247 91° East 202 232 15,000  Level Seattle Center
02:40PM 47.9853 -119.5444 100° East 199 229 15,000  Level Seattle Center
02:41PM 47.9814 -119.4619 94° East 198 228 15,000  Level Seattle Center
02:42PM 47.9797 -119.3625 91° East 200 230 15,000  Level Seattle Center
02:43PM 47.9825 -119.2808 87° East 198 228 15,000  Level Seattle Center
02:44PM 47.9792 -119.1983 93° East 200 230 15,100  Climbing Seattle Center
02:45PM 47.9700 -119.1169 100° East 199 229 15,100 -60 Level Seattle Center
02:46PM 47.9603 -119.0364 100° East 199 229 15,000 -60 Descending Seattle Center
02:47PM 47.9508 -118.9544 100° East 200 230 15,000  Level Seattle Center
02:48PM 47.9436 -118.8725 97° East 199 229 15,000  Level Seattle Center
02:49PM 47.9400 -118.7881 94° East 205 236 15,000  Level Seattle Center
02:50PM 47.9339 -118.7050 96° East 202 232 15,000  Level Seattle Center
02:51PM 47.9272 -118.6225 97° East 202 232 15,000  Level Seattle Center
02:52PM 47.9186 -118.5167 97° East 218 251 15,000  Level Seattle Center
02:53PM 47.8986 -118.4186 107° East 248 285 15,100  Climbing Seattle Center
02:54PM 47.8758 -118.3150 108° East 262 302 15,000 -180 Descending Seattle Center
02:55PM 47.8531 -118.2117 108° East 264 304 14,800 -60 Descending Seattle Center
02:56PM 47.8303 -118.1100 108° East 261 300 14,900 120 Climbing Seattle Center
02:57PM 47.8092 -118.0069 107° East 262 302 15,100 120 Climbing Seattle Center
02:58PM 47.7850 -117.9042 109° East 264 304 15,200  Climbing Seattle Center
02:59PM 47.7578 -117.8061 112° Southeast 259 298 15,200 -60 Level Seattle Center
03:00PM 47.7258 -117.7089 116° Southeast 262 302 15,100  Descending Seattle Center
03:01PM 47.6906 -117.6178 120° Southeast 256 295 15,200  Climbing Seattle Center
03:02PM 47.6286 -117.5619 149° Southeast 255 293 15,100 -120 Descending Seattle Center
03:03PM 47.6147 -117.6547 258° West 248 285 15,000 -60 Descending Seattle Center
03:04PM 47.6244 -117.7583 278° West 254 292 15,000  Level Seattle Center
03:05PM 47.6333 -117.8628 277° West 255 293 15,100  Climbing Seattle Center
03:06PM 47.6414 -117.9669 277° West 255 293 15,100  Level Seattle Center
03:07PM 47.6486 -118.0706 276° West 253 291 15,100 -120 Level Seattle Center
03:08PM 47.6581 -118.1739 278° West 252 290 14,900 -120 Descending Seattle Center
03:09PM 47.6692 -118.2758 279° West 251 289 14,900 -120 Level Seattle Center
03:10PM 47.6817 -118.3781 280° West 253 291 14,700 -180 Descending Seattle Center
03:11PM 47.6978 -118.4778 284° West 251 289 14,600 60 Descending Seattle Center
03:13PM 47.7175 -118.5931 284° West 240 276 14,900 120 Climbing Seattle Center
03:14PM 47.7297 -118.6814 282° West 220 253 14,900  Level Seattle Center
03:15PM 47.7442 -118.7711 283° West 225 259 14,900  Level Seattle Center
03:16PM 47.7575 -118.8558 283° West 209 241 14,900 -60 Level Seattle Center
03:17PM 47.7686 -118.9328 282° West 194 223 14,800  Descending Seattle Center
03:18PM 47.7822 -119.0108 285° West 195 224 15,000 120 Climbing Seattle Center
03:19PM 47.7928 -119.0806 283° West 177 204 15,100  Climbing Seattle Center
03:20PM 47.8053 -119.1583 283° West 191 220 15,000 -180 Descending Seattle Center
03:21PM 47.8172 -119.2322 284° West 187 215 14,800 -180 Descending Seattle Center
03:22PM 47.8278 -119.3006 283° West 151 174 14,700  Descending Seattle Center
03:23PM 47.7989 -119.3689 238° Southwest 202 232 14,900 120 Climbing Seattle Center
03:24PM 47.7469 -119.3867 193° South 196 226 15,000  Climbing Seattle Center
03:25PM 47.6944 -119.4025 191° South 194 223 15,000 -60 Level Seattle Center
03:26PM 47.6422 -119.4219 194° South 193 222 14,900 -60 Descending Seattle Center
03:27PM 47.5894 -119.4381 192° South 194 223 14,900  Level Seattle Center
03:28PM 47.5375 -119.4556 193° South 180 207 14,900 -60 Level Seattle Center
03:29PM 47.4894 -119.4744 195° South 178 205 14,800 -180 Descending Seattle Center
03:30PM 47.4367 -119.4700 177° South 179 206 14,600 -120 Descending Seattle Center
03:31PM 47.3878 -119.4594 172° South 180 207 14,600 120 Level Seattle Center
03:32PM 47.4022 -119.3933 72° East 192 221 14,900 60 Climbing Seattle Center
03:33PM 47.4392 -119.3358 46° Northeast 192 221 14,800 -180 Descending Seattle Center
03:34PM 47.4769 -119.2722 49° Northeast 191 220 14,600 -180 Descending Seattle Center
03:35PM 47.5083 -119.2119 52° Northeast 192 221 14,500 -120 Descending Seattle Center
03:36PM 47.5400 -119.1494 53° Northeast 190 219 14,400  Descending Seattle Center
03:37PM 47.5728 -119.0881 52° Northeast 186 214 14,500  Climbing Seattle Center
03:38PM 47.6122 -119.0436 37° Northeast 186 214 14,500 60 Level Seattle Center
03:39PM 47.6558 -119.0033 32° Northeast 188 216 14,700 120 Climbing Seattle Center
03:40PM 47.7028 -118.9686 26° Northeast 191 220 14,800  Climbing Seattle Center
03:41PM 47.7500 -118.9303 29° Northeast 194 223 14,800 -60 Level Seattle Center
03:42PM 47.7956 -118.8889 31° Northeast 194 223 14,700 -60 Descending Seattle Center
03:43PM 47.8292 -118.8317 49° Northeast 192 221 14,700 -60 Level Seattle Center
03:44PM 47.8383 -118.7531 80° East 194 223 14,600 -60 Descending Seattle Center
03:45PM 47.8444 -118.6606 84° East 190 219 14,600  Level Seattle Center
03:46PM 47.8453 -118.5819 89° East 190 219 14,700  Climbing Seattle Center
03:47PM 47.8436 -118.5022 92° East 192 221 14,700  Level Seattle Center
03:48PM 47.8381 -118.4236 96° East 193 222 14,800 60 Climbing Seattle Center
03:49PM 47.8308 -118.3439 98° East 194 223 14,900  Climbing Seattle Center
03:50PM 47.8200 -118.2675 102° East 191 220 14,800 -60 Descending Seattle Center
03:51PM 47.8078 -118.1925 104° East 188 216 14,800 -60 Level Seattle Center
03:52PM 47.7933 -118.1189 106° East 186 214 14,700  Descending Seattle Center
03:53PM 47.7819 -118.0453 103° East 183 211 14,800  Climbing Seattle Center
03:54PM 47.7681 -117.9714 106° East 186 214 14,800  Level Seattle Center
03:55PM 47.7539 -117.8989 106° East 184 212 14,800  Level Seattle Center
03:56PM 47.7494 -117.8067 94° East 188 216 14,900  Climbing Seattle Center
03:57PM 47.7503 -117.7306 89° East 186 214 14,900  Level Seattle Center
03:58PM 47.7550 -117.6539 85° East 186 214 14,900  Level Seattle Center
03:59PM 47.7653 -117.5778 79° East 187 215 14,900  Level Seattle Center
04:00PM 47.7811 -117.5042 72° East 187 215 15,000  Climbing Seattle Center
04:01PM 47.8025 -117.4331 66° East 188 216 15,000  Level Seattle Center
04:02PM 47.8294 -117.3653 59° Northeast 190 219 15,000  Level Seattle Center
04:03PM 47.8628 -117.3025 52° Northeast 193 222 15,000  Level Seattle Center
04:04PM 47.9028 -117.2494 42° Northeast 196 226 15,000  Level Seattle Center
04:05PM 47.9258 -117.3108 299° West 191 220 15,100 -60 Climbing Seattle Center
04:06PM 47.9217 -117.3925 266° West 200 230 14,900 -180 Descending Seattle Center
04:07PM 47.9147 -117.4806 263° West 213 245 14,800 -120 Descending Seattle Center
04:09PM 47.9094 -117.5689 265° West 216 249 14,700 -60 Descending Seattle Center
04:10PM 47.8986 -117.6736 261° West 214 246 14,700 60 Level Seattle Center
04:11PM 47.8900 -117.7617 262° West 215 247 14,900 120 Climbing Seattle Center
04:12PM 47.8797 -117.8506 260° West 218 251 15,000  Climbing Seattle Center
04:13PM 47.8686 -117.9383 259° West 217 250 15,000 -60 Level Seattle Center
04:14PM 47.8564 -118.0247 258° West 216 249 14,900 -60 Descending Seattle Center
04:15PM 47.8517 -118.1142 266° West 220 253 14,900  Level Seattle Center
04:16PM 47.8536 -118.2025 272° West 217 250 15,000  Climbing Seattle Center
04:17PM 47.8581 -118.2903 274° West 214 246 14,900 -120 Descending Seattle Center
04:18PM 47.8669 -118.3772 279° West 213 245 14,800 -60 Descending Seattle Center
04:19PM 47.8781 -118.4633 281° West 213 245 14,800  Level Seattle Center
04:20PM 47.8875 -118.5492 279° West 211 243 14,900 -60 Climbing Seattle Center
04:21PM 47.8906 -118.6550 273° West 213 245 14,700 -60 Descending Seattle Center
04:22PM 47.8953 -118.7436 275° West 214 246 14,800  Climbing Seattle Center
04:23PM 47.9036 -118.8306 278° West 213 245 14,800  Level Seattle Center
04:24PM 47.9144 -118.9194 280° West 218 251 14,800  Level Seattle Center
04:25PM 47.9275 -119.0053 283° West 216 249 14,900  Climbing Seattle Center
04:26PM 47.9422 -119.0917 284° West 215 247 14,900  Level Seattle Center
04:27PM 47.9575 -119.1778 285° West 215 247 14,900  Level Seattle Center
04:28PM 47.9764 -119.2636 288° West 217 250 14,900  Level Seattle Center
04:29PM 47.9953 -119.3492 288° West 218 251 14,900  Level Seattle Center
04:30PM 48.0119 -119.4339 286° West 217 250 14,900  Level Seattle Center
04:31PM 47.9850 -119.5100 242° Southwest 207 238 14,900  Level Seattle Center
04:32PM 47.9394 -119.5892 229° Southwest 210 242 14,900  Level Seattle Center
04:33PM 47.8964 -119.6508 224° Southwest 214 246 14,900  Level Seattle Center
04:34PM 47.8503 -119.7025 217° Southwest 210 242 15,000  Climbing Seattle Center
04:35PM 47.7972 -119.7550 214° Southwest 212 244 15,000  Level Seattle Center
04:36PM 47.7586 -119.7936 214° Southwest 179 206 15,000  Level Seattle Center
04:37PM 47.7214 -119.8294 213° Southwest 165 190 15,000  Level Seattle Center
04:38PM 47.6856 -119.8700 217° Southwest 164 189 15,000  Level Seattle Center
04:39PM 47.6475 -119.9178 220° Southwest 166 191 15,000 -300 Level Seattle Center
04:40PM 47.6150 -119.9564 219° Southwest 154 177 14,500 -360 Descending Seattle Center
04:41PM 47.5844 -119.9967 222° Southwest 149 171 14,300  Descending Seattle Center
04:42PM 47.5531 -120.0400 223° Southwest 154 177 14,500 240 Climbing Seattle Center
04:43PM 47.5025 -120.0153 162° South 174 200 14,900 240 Climbing Seattle Center
04:44PM 47.4783 -119.9494 118° Southeast 183 211 15,000  Climbing Seattle Center
04:45PM 47.4567 -119.8822 115° Southeast 184 212 15,000 -60 Level Seattle Center
04:46PM 47.4339 -119.8144 116° Southeast 185 213 14,900 -300 Descending Seattle Center
04:47PM 47.4219 -119.7339 102° East 187 215 14,500 -300 Descending Seattle Center
04:48PM 47.4186 -119.6569 94° East 189 217 14,300 -120 Descending Seattle Center
04:49PM 47.4225 -119.5761 86° East 197 227 14,300 240 Level Seattle Center
04:50PM 47.4508 -119.5036 60° Northeast 203 234 14,900 300 Climbing Seattle Center
04:51PM 47.4811 -119.4264 60° Northeast 204 235 15,000 -60 Climbing Seattle Center
04:52PM 47.5022 -119.3497 68° East 203 234 14,800 -60 Descending Seattle Center
04:53PM 47.5136 -119.2694 78° East 201 231 14,900  Climbing Seattle Center
04:54PM 47.5242 -119.2003 77° East 204 235 14,900  Level Seattle Center
04:55PM 47.5439 -119.0989 74° East 216 249 15,000 240 Climbing Seattle Center
04:56PM 47.5639 -119.0094 72° East 229 264 15,400 120 Climbing Seattle Center
04:57PM 47.5842 -118.9211 71° East 227 261 15,300 -120 Descending Seattle Center
04:58PM 47.6003 -118.8308 75° East 228 262 15,200 -120 Descending Seattle Center
04:59PM 47.6228 -118.7425 69° East 227 261 15,100 -120 Descending Seattle Center
05:00PM 47.6608 -118.7658 338° Northwest 221 254 15,000 -120 Descending Seattle Center
05:01PM 47.6600 -118.8614 269° West 234 269 14,900  Descending Seattle Center
05:02PM 47.6586 -118.9597 269° West 239 275 15,000  Climbing Seattle Center
05:03PM 47.6656 -119.0561 276° West 239 275 14,900 -120 Descending Seattle Center
05:04PM 47.6767 -119.1506 280° West 233 268 14,800 -180 Descending Seattle Center
05:05PM 47.6911 -119.2456 283° West 236 272 14,600 -180 Descending Seattle Center
05:06PM 47.7036 -119.3553 280° West 235 270 14,500 -60 Descending Seattle Center
05:08PM 47.7081 -119.4586 274° West 235 270 14,500 60 Level Seattle Center
05:09PM 47.7106 -119.5556 272° West 236 272 14,700 120 Climbing Seattle Center
05:10PM 47.7097 -119.6525 269° West 237 273 14,800 60 Climbing Seattle Center
05:11PM 47.7053 -119.7475 266° West 234 269 14,900  Climbing Seattle Center
05:12PM 47.6989 -119.8514 265° West 237 273 14,900  Level Seattle Center
05:13PM 47.6922 -119.9489 264° West 238 274 14,900  Level Seattle Center
05:14PM 47.6947 -120.0453 272° West 250 288 14,900  Level Seattle Center
05:15PM 47.7531 -120.0358 North 260 299 14,900  Level Seattle Center
05:16PM 47.7983 -119.9569 49° Northeast 242 278 14,900  Level Seattle Center
05:17PM 47.8531 -119.9228 23° Northeast 247 284 14,900  Level Seattle Center
05:18PM 47.8947 -119.8611 45° Northeast 256 295 14,900 240 Level Seattle Center
05:19PM 47.8792 -119.7528 102° East 266 306 15,500 840 Climbing Seattle Center
05:20PM 47.8567 -119.6444 107° East 275 316 16,700 1,380 Climbing Seattle Center
05:21PM 47.8353 -119.5317 106° East 282 325 18,400 420 Climbing Seattle Center
05:26PM 47.5940 -119.7760 106° East 318 366 19,800 180 Climbing FlightAware
05:27PM 47.6100 -119.8190 299° West 330 380 19,800 180 Level FlightAware
05:27PM 47.6190 -119.8260 332° Northwest 334 384 19,900 120 Climbing FlightAware
05:28PM 47.6620 -119.8600 332° Northwest 334 384 19,900  Level FlightAware
05:28PM 47.7040 -119.8930 332° Northwest 334 384 19,900  Level FlightAware
05:29PM 47.7460 -119.9260 332° Northwest 334 384 19,900  Level FlightAware
05:29PM 47.7880 -119.9590 332° Northwest 334 384 19,900  Level FlightAware
05:30PM 47.8290 -119.9920 332° Northwest 334 384 19,900  Level FlightAware
05:31PM 47.8710 -120.0250 332° Northwest 334 384 19,900 -600 Level FlightAware
05:32PM 47.9481 -119.4200 332° Northwest 340 391 18,900 -120 Descending Seattle Center
05:33PM 47.8908 -119.3114 128° Southeast 343 395 19,700 240 Climbing Seattle Center
05:34PM 47.8408 -119.1992 124° Southeast 334 384 19,400 -240 Descending Seattle Center
05:35PM 47.7789 -119.0672 125° Southeast 329 379 19,300 120 Descending Seattle Center
05:36PM 47.7311 -118.9539 122° Southeast 326 375 19,700 120 Climbing Seattle Center
05:37PM 47.6900 -118.8367 117° Southeast 325 374 19,600 -60 Descending Seattle Center
05:38PM 47.6775 -118.7044 98° East 334 384 19,600  Level Seattle Center
05:39PM 47.7594 -118.6492 24° Northeast 359 413 19,700  Climbing Seattle Center
05:40PM 47.8464 -118.7172 332° Northwest 366 421 19,700  Level Seattle Center
05:41PM 47.9147 -118.8144 316° Northwest 351 404 19,800  Climbing Seattle Center
05:42PM 47.9647 -118.9358 302° West 347 399 19,800  Level Seattle Center
05:43PM 47.9900 -119.0714 286° West 342 394 19,900  Climbing Seattle Center
05:44PM 47.9864 -119.2089 268° West 333 383 19,900  Level Seattle Center
05:49PM 47.7990 -119.9280 268° West 328 377 20,000  Climbing FlightAware
05:50PM 47.7890 -119.9370 211° Southwest 325 374 20,000 -480 Level FlightAware
05:50PM 47.7800 -119.9390 188° South 324 373 19,900 -240 Descending FlightAware
05:50PM 47.7510 -119.9180 154° Southeast 323 372 19,900 180 Level FlightAware
05:50PM 47.7420 -119.9020 130° Southeast 322 371 20,000 240 Climbing FlightAware
05:50PM 47.7330 -119.8750 116° Southeast 325 374 20,000 -180 Level FlightAware
05:51PM 47.7250 -119.8190 102° East 327 376 19,900 -120 Descending FlightAware
05:52PM 47.7170 -119.7430 99° East 328 377 19,900  Level FlightAware
05:52PM 47.7090 -119.6740 100° East 328 377 19,900  Level FlightAware
05:53PM 47.7020 -119.6060 99° East 328 377 19,900  Level FlightAware
05:53PM 47.6950 -119.5360 98° East 328 377 19,900  Level FlightAware
05:54PM 47.6870 -119.4680 100° East 328 377 19,900  Level FlightAware
05:55PM 47.6800 -119.3980 98° East 328 377 19,900 360 Level FlightAware
05:55PM 47.7383 -119.2522 98° East 331 381 20,400 240 Climbing Seattle Center
05:56PM 47.7558 -119.1217 79° East 326 375 20,300  Descending Seattle Center
05:57PM 47.7789 -118.9939 75° East 334 384 20,400  Climbing Seattle Center
05:58PM 47.8542 -119.0411 337° Northwest 339 390 20,300 -780 Descending Seattle Center
05:59PM 47.8111 -119.1714 244° Southwest 313 360 18,800 -1,800 Descending Seattle Center
06:00PM 47.7564 -119.2761 232° Southwest 313 360 16,700 -1,680 Descending Seattle Center
06:01PM 47.7197 -119.3850 243° Southwest 300 345 15,500 -720 Descending Seattle Center
06:02PM 47.6414 -119.4281 200° South 299 344 15,300 -300 Descending Seattle Center
06:03PM 47.5589 -119.4083 171° South 301 346 15,000 -480 Descending Seattle Center
06:04PM 47.4733 -119.3936 173° South 309 356 14,400 -780 Descending Seattle Center
06:05PM 47.3928 -119.3839 175° South 296 341 13,500 -600 Descending Seattle Center
06:06PM 47.3108 -119.3525 165° South 297 342 13,300 -180 Descending Seattle Center
06:07PM 47.2397 -119.3472 177° South 286 329 13,200 -180 Descending Seattle Center
06:08PM 47.1667 -119.3850 199° South 286 329 13,000 -240 Descending Seattle Center
06:09PM 47.0922 -119.4172 196° South 286 329 12,800 -360 Descending Seattle Center
06:11PM 47.0731 -119.3181 106° East 293 337 12,300 -480 Descending Seattle Center
06:12PM 47.1403 -119.2739 24° Northeast 275 316 11,900 -360 Descending Seattle Center
06:13PM 47.2108 -119.2978 347° North 259 298 11,600  Descending Seattle Center
06:14PM 47.2792 -119.3494 333° Northwest 276 318 11,900 180 Climbing Seattle Center
06:15PM 47.2350 -119.4086 222° Southwest 266 306 12,000  Climbing Seattle Center
06:16PM 47.1714 -119.3494 148° Southeast 279 321 12,000  Level Seattle Center
06:17PM 47.2136 -119.2681 53° Northeast 281 323 12,000  Level Seattle Center
06:18PM 47.2514 -119.3406 308° West 275 316 12,000  Level Seattle Center
06:19PM 47.1847 -119.3803 202° Southwest 264 304 12,000  Level Seattle Center
06:20PM 47.1692 -119.2919 104° East 286 329 12,000 -60 Level Seattle Center
06:21PM 47.2244 -119.3186 342° North 287 330 11,900 -120 Descending Seattle Center
06:22PM 47.2067 -119.4383 258° West 265 305 11,800 -600 Descending Seattle Center
06:23PM 47.1858 -119.5522 255° West 269 310 10,700 -660 Descending Seattle Center
06:24PM 47.1672 -119.6544 255° West 262 302 10,500 -120 Descending Seattle Center
06:25PM 47.1489 -119.7547 255° West 256 295 10,500  Level Seattle Center
06:26PM 47.1306 -119.8544 255° West 254 292 10,500  Level Seattle Center
06:27PM 47.1114 -119.9633 256° West 257 296 10,500  Level Seattle Center
06:28PM 47.0944 -120.0611 256° West 248 285 10,500  Level Seattle Center
06:29PM 47.0811 -120.1556 258° West 240 276 10,500  Level Seattle Center
06:30PM 47.0728 -120.2611 263° West 243 280 10,500  Level Seattle Center
06:31PM 47.0667 -120.3331 263° West 175 201 10,500  Level Seattle Center
06:32PM 47.0608 -120.3992 263° West 165 190 10,500 60 Level Seattle Center
06:38PM 47.0150 -120.9010 263° West 267 307 11,200 60 Climbing FlightAware
06:39PM 47.0090 -120.9680 263° West 268 308 11,200  Level FlightAware
06:39PM 47.0030 -121.0360 263° West 264 304 11,200  Level FlightAware
06:40PM 46.9960 -121.1040 261° West 262 302 11,200  Level FlightAware
06:40PM 46.9880 -121.1640 259° West 265 305 11,200  Level FlightAware
06:41PM 46.9740 -121.2600 258° West 259 298 11,200  Level FlightAware
06:42PM 46.9640 -121.3270 258° West 259 298 11,200  Level FlightAware
06:43PM 46.9570 -121.3790 259° West 259 298 11,200 180 Level FlightAware
06:43PM 46.9410 -121.4960 259° West 315 362 11,500 120 Climbing FlightAware
06:44PM 46.9290 -121.5880 259° West 263 303 11,500  Level FlightAware
06:45PM 46.9210 -121.6380 257° West 263 303 11,500 60 Level FlightAware
06:45PM 46.9130 -121.6990 259° West 259 298 11,600 120 Climbing FlightAware
06:46PM 46.9050 -121.7630 260° West 261 300 11,700 120 Climbing FlightAware
06:47PM 46.8960 -121.8210 257° West 260 299 11,800 120 Climbing FlightAware
06:47PM 46.8910 -121.8320 236° Southwest 262 302 11,800  Level FlightAware
06:47PM 46.8860 -121.8400 228° Southwest 265 305 11,800  Level FlightAware
06:47PM 46.8780 -121.8450 203° Southwest 268 308 11,800  Level FlightAware
06:47PM 46.8670 -121.8470 187° South 273 314 11,800  Level FlightAware
06:48PM 46.8290 -121.8210 155° Southeast 280 322 11,800  Level FlightAware
06:48PM 46.7980 -121.7900 146° Southeast 280 322 11,800  Level FlightAware
06:48PM 46.7920 -121.7650 109° East 285 328 11,800  Level FlightAware
06:49PM 46.7920 -121.6990 90° East 285 328 11,800 240 Level FlightAware
06:49PM 46.8060 -121.6700 55° Northeast 286 329 12,000 240 Climbing FlightAware
06:50PM 46.8710 -121.6460 14° North 278 320 12,100  Climbing FlightAware
06:51PM 46.9100 -121.6690 338° Northwest 257 296 12,000 -120 Descending FlightAware
06:51PM 46.9410 -121.6920 333° Northwest 247 284 12,000  Level FlightAware
06:52PM 46.9750 -121.7260 326° Northwest 248 285 12,000  Level FlightAware
06:53PM 47.0110 -121.7620 326° Northwest 248 285 12,000  Level FlightAware
06:53PM 47.0450 -121.7960 326° Northwest 248 285 12,000  Level FlightAware
06:54PM 47.0910 -121.8450 324° Northwest 248 285 12,000  Level FlightAware
06:54PM 47.1190 -121.8740 325° Northwest 249 287 12,000  Level FlightAware
06:55PM 47.1550 -121.9120 324° Northwest 251 289 12,000  Level FlightAware
06:56PM 47.1840 -121.9440 323° Northwest 248 285 12,000 -180 Level FlightAware
06:56PM 47.2190 -121.9820 324° Northwest 254 292 11,800 -660 Descending FlightAware
06:57PM 47.2520 -122.0180 323° Northwest 251 289 11,200 -960 Descending FlightAware
06:57PM 47.2840 -122.0540 323° Northwest 239 275 10,700 -840 Descending FlightAware
06:58PM 47.3150 -122.0890 323° Northwest 226 260 10,200 -720 Descending FlightAware
06:58PM 47.3330 -122.1130 318° Northwest 216 249 10,000 -240 Descending FlightAware
06:59PM 47.3490 -122.1560 299° West 209 241 10,000  Level FlightAware
07:00PM 47.3640 -122.2000 297° West 210 242 10,000  Level FlightAware
07:00PM 47.3820 -122.2560 295° West 215 247 10,000  Level FlightAware
07:01PM 47.4030 -122.3090 300° West 200 230 10,000  Level FlightAware
07:02PM 47.4250 -122.3530 306° West 204 235 10,000  Level FlightAware
07:02PM 47.4380 -122.3770 309° West 205 236 10,000 -600 Level FlightAware
07:02PM 47.4540 -122.3950 323° Northwest 204 235 9,600 -1,080 Descending FlightAware
07:03PM 47.4700 -122.4110 326° Northwest 205 236 9,300 -1,140 Descending FlightAware
07:03PM 47.4880 -122.4280 327° Northwest 209 241 8,800 -1,260 Descending FlightAware
07:03PM 47.5060 -122.4440 329° Northwest 212 244 8,400 -1,320 Descending FlightAware
07:04PM 47.5160 -122.4540 326° Northwest 213 245 8,100 -1,080 Descending FlightAware
07:04PM 47.5360 -122.4720 329° Northwest 210 242 7,800 -960 Descending FlightAware
07:04PM 47.5530 -122.4870 329° Northwest 208 239 7,400 -1,080 Descending FlightAware
07:05PM 47.5690 -122.5020 328° Northwest 204 235 7,100 -1,080 Descending FlightAware
07:05PM 47.5850 -122.5170 328° Northwest 197 227 6,700 -1,140 Descending FlightAware
07:05PM 47.6030 -122.5300 334° Northwest 190 219 6,300 -1,260 Descending FlightAware
07:06PM 47.6200 -122.5400 338° Northwest 184 212 5,800 -1,500 Descending FlightAware
07:06PM 47.6290 -122.5450 339° North 181 208 5,500 -1,320 Descending FlightAware
07:06PM 47.6440 -122.5540 338° Northwest 180 207 5,100 -1,320 Descending FlightAware
07:06PM 47.6550 -122.5570 350° North 178 205 4,800 -1,140 Descending FlightAware
07:07PM 47.6710 -122.5590 355° North 177 204 4,500 -1,080 Descending FlightAware
07:07PM 47.6870 -122.5610 355° North 174 200 4,100 -1,320 Descending FlightAware
07:07PM 47.6950 -122.5680 330° Northwest 174 200 3,800 -1,380 Descending FlightAware
07:08PM 47.7120 -122.5830 329° Northwest 178 205 3,300 -1,200 Descending FlightAware
07:08PM 47.7250 -122.5970 324° Northwest 182 209 3,000 -480 Descending FlightAware
07:08PM 47.7390 -122.6100 328° Northwest 178 205 3,000  Level FlightAware
07:09PM 47.7540 -122.6240 328° Northwest 179 206 3,000  Level FlightAware
07:09PM 47.7680 -122.6370 328° Northwest 179 206 3,000  Level FlightAware
07:09PM 47.7740 -122.6410 336° Northwest 179 206 3,000  Level FlightAware
07:09PM 47.7780 -122.6420 350° North 178 205 3,000  Level FlightAware
07:09PM 47.7820 -122.6430 350° North 180 207 3,000  Level FlightAware
07:10PM 47.8000 -122.6270 31° Northeast 186 214 3,000  Level FlightAware
07:10PM 47.8040 -122.6190 53° Northeast 188 216 3,000  Level FlightAware
07:10PM 47.8130 -122.5960 60° Northeast 188 216 3,000  Level FlightAware
07:11PM 47.8160 -122.5760 77° East 193 222 3,000  Level FlightAware
07:11PM 47.8160 -122.5730 90° East 193 222 3,000  Level FlightAware
07:11PM 47.8110 -122.5500 108° East 196 226 3,000  Level FlightAware
07:11PM 47.8070 -122.5430 130° Southeast 197 227 3,000  Level FlightAware
07:11PM 47.8020 -122.5350 133° Southeast 196 226 3,000 300 Level FlightAware
07:11PM 47.7930 -122.5250 143° Southeast 195 224 3,100  Climbing FlightAware
07:12PM 47.7750 -122.5110 152° Southeast 195 224 3,000 -180 Descending FlightAware
07:12PM 47.7630 -122.5000 148° Southeast 193 222 3,000  Level FlightAware
07:12PM 47.7470 -122.4870 151° Southeast 195 224 3,000 -300 Level FlightAware
07:13PM 47.7320 -122.4740 150° Southeast 187 215 2,800 -780 Descending FlightAware
07:13PM 47.7170 -122.4610 150° Southeast 186 214 2,500 -840 Descending FlightAware
07:13PM 47.7000 -122.4460 149° Southeast 185 213 2,200 -540 Descending FlightAware
07:14PM 47.6910 -122.4390 152° Southeast 184 212 2,200  Level FlightAware
07:14PM 47.6760 -122.4270 152° Southeast 179 206 2,200  Level FlightAware
07:14PM 47.6640 -122.4160 148° Southeast 178 205 2,200  Level FlightAware
07:14PM 47.6500 -122.4050 152° Southeast 180 207 2,200  Level FlightAware
07:15PM 47.6390 -122.3950 149° Southeast 179 206 2,200 -180 Level FlightAware
07:15PM 47.6250 -122.3820 148° Southeast 180 207 2,100 -780 Descending FlightAware
07:15PM 47.6110 -122.3710 152° Southeast 172 198 1,700 -1,200 Descending FlightAware
07:16PM 47.5970 -122.3590 150° Southeast 163 188 1,300 -1,080 Descending FlightAware
07:16PM 47.5840 -122.3480 150° Southeast 148 170 1,000 -840 Descending FlightAware
07:16PM 47.5700 -122.3360 150° Southeast 147 169 700 -720 Descending FlightAware
07:17PM 47.5580 -122.3260 151° Southeast 148 170 500 -300 Descending FlightAware
07:17PM 47.5450 -122.3150 150° Southeast 148 170 500  Level FlightAware
07:26PM 47.4449 -121.3438 98° East  Level Estimated
07:27PM 47.4323 -121.2265 99° East  Level Estimated
07:28PM 47.4195 -121.1093 99° East  Level Estimated
07:29PM 47.4066 -120.9922 99° East  Level Estimated
07:30PM 47.3936 -120.8752 99° East  Level Estimated
07:31PM 47.3804 -120.7581 99° East  Level Estimated
07:32PM 47.3672 -120.6412 99° East  Level Estimated
07:33PM 47.3538 -120.5243 100° East  Level Estimated
07:34PM 47.3403 -120.4075 100° East  Level Estimated
07:35PM 47.3267 -120.2907 100° East  Level Estimated
07:36PM 47.3130 -120.1740 100° East  Level Estimated
07:37PM 47.2991 -120.0574 100° East  Level Estimated
07:38PM 47.2852 -119.9408 100° East  Level Estimated
07:39PM 47.2711 -119.8242 100° East  Level Estimated
07:40PM 47.2569 -119.7078 100° East  Level Estimated